Regional Weather Roundup
Issued by NWS Charleston, SC

Current Version | Previous Version | Graphics & Text | Print | Product List | Glossary On
Versions: 1 2 3 4 5 6 7 8 9 10 11 12 13 14 15 16 17 18 19 20 21 22 23 24 25 26 27 28 29 30 31 32 33 34 35 36 37 38 39 40 41 42 43 44 45 46 47 48 49 50
000
ASUS42 KCHS 221112
RWRCHS

REGIONAL WEATHER ROUNDUP
NATIONAL WEATHER SERVICE CHARLESTON SC
700 AM EDT MON MAY 22 2017

NOTE: "FAIR" INDICATES FEW OR NO CLOUDS BELOW 12,000 FEET WITH NO
SIGNIFICANT WEATHER AND/OR OBSTRUCTIONS TO VISIBILITY.

NOT ALL STATIONS ARE QUALITY CONTROLLED. USE DATA WITH CAUTION...
ESPECIALLY DEWPOINT OBSERVATIONS.

SCZ027-030-031-034>040-042>050-221200-
...SOUTHEAST SOUTH CAROLINA...

CITY           SKY/WX    TMP DP  RH WIND       PRES   REMARKS
N CHARLESTON   MOCLDY    72  70  93 SW6       30.07S
WATERFRONT PRK   N/A     75  72  90 SW7       30.05S
JOHNS ISLAND   PTSUNNY   73  73 100 SW6       30.08R FOG
PINOPOLIS        N/A     73  72  94 VRB3      29.99R
MONCKS CORNER  CLOUDY    72  70  94 CALM      30.07S
SUMMERVILLE    RAIN      72  70  94 CALM      30.08S
BEAUFORT MCAS  PTCLDY    75  74  96 CALM      30.07R
BEAUFORT ARPT  FAIR      75  72  88 CALM      30.07R
HILTON HEAD IS PTCLDY    73  72  94 S5          N/A
WALTERBORO     CLOUDY    72  72 100 S3        30.08R
ALLENDALE      FAIR      72  70  94 CALM      30.06R

...SOUTHERN MIDLANDS AND PEE DEE...

CITY           SKY/WX    TMP DP  RH WIND       PRES   REMARKS
GEORGETOWN     FAIR      72  68  88 S5        30.09R
KINGSTREE      LGT RAIN N/A N/A N/A CALM      30.07R
ORANGEBURG     CLOUDY    72  71  97 CALM      30.07R
BARNWELL       FAIR      72  72 100 CALM      30.07R
AIKEN          CLOUDY    70  68  94 SW5       30.10R
MANNING        CLOUDY    73  73 100 SW8       30.07R
COLUMBIA       CLOUDY    72  70  93 SW5       30.06R
SUMTER         CLOUDY    72  71  95 CALM      30.04S
FLORENCE       CLOUDY    71  71 100 S6        30.07R
MYRTLE BEACH   MOCLDY    75  68  78 SW14      30.08R
N MYRTLE BEACH MOCLDY    76  68  76 SW16      30.08R

$$

GAZ063-065-086>088-099>101-113>116-118-119-134>141-150-221200-
...SOUTHEAST GEORGIA...

CITY           SKY/WX    TMP DP  RH WIND       PRES   REMARKS
SAVANNAH ARPT  MOCLDY    74  70  87 S5        30.08R
HUNTER AAF     CLOUDY    74  74 100 SW3       30.05R
FORT STEWART   CLOUDY    71  69  92 CALM      30.06R
STATESBORO     MOCLDY    73  73 100 S3        30.07R
SYLVANIA       CLOUDY    71  71 100 CALM      30.08R
CLAXTON        PTSUNNY  N/A N/A N/A CALM      30.07R

...CSRA...CENTRAL AND FAR SOUTHEAST GEORGIA...

CITY           SKY/WX    TMP DP  RH WIND       PRES   REMARKS
THOMSON        CLEAR     69  67  96 CALM      30.11S
AUGUSTA-BUSH   CLOUDY    71  69  93 CALM      30.05S
AUGUSTA-DANIEL CLOUDY    72  67  84 SE3       30.06R
SWAINSBORO     FAIR      70  70 100 CALM      30.08R
VIDALIA        CLOUDY    72  72 100 S3        30.07R
EASTMAN        CLOUDY    68  68 100 CALM      30.10R
HAZLEHURST     FAIR      73  73 100 CALM      30.06R
ALMA           CLOUDY    69  67  93 CALM      30.07R
WAYCROSS       PTCLDY    72  72 100 CALM      30.07R
JESUP          FAIR      72  68  88 CALM      30.07S
BAXLEY         FAIR      70  70 100 CALM      30.07R
BRUNSWICK      CLEAR     72  72 100 CALM      30.08R FOG
SAINT SIMONS   LGT RAIN  73  71  93 CALM      30.07R

$$

SCZ027-028-034-036>038-045-046-048>050-GAZ119-141-221200-
...LAKE AND SUPPLEMENTAL COASTAL OBSERVATIONS...

STATION/POSITION TIME  TEMP    WIND        PRES    WAVE   SWELL
                       AIR SEA DIR/SP/G            HT/PER HT/PER/DIR
                 (UTC) (F)     (DEG/KT/KT) (MB)    (FT/S) (FT/S/D)
WINYAH BAY       NOT AVBL
LAKE MURRAY      1020   70      CALM  /  5 1017.3R
ACE BASIN NERRS  0945   73     190/  1     1018.0
FORT PULASKI     1048   76 79  260/  4/  5 1018.5R
SAPELO ISLAND    1000   75     220/  5     1018.0

$$

ANZ835-935-AMZ111-154-330-350-352-354-370-450-454-472-221200-
...C-MAN AND BUOY OBSERVATIONS...

STATION/POSITION TIME  TEMP    WIND        PRES    WAVE   SWELL
                       AIR SEA DIR/SP/G            HT/PER HT/PER/DIR
                 (UTC) (F)     (DEG/KT/KT) (MB)    (FT/S) (FT/S/D)
BUOY 41004       1050   77 78  190/ 14/ 17 1018.4R   4/ 5   2/120/ 8
BUOY 41008       0950   76 77  210/ 14/ 17 1017.4    3/ 5   2/ 80/ 7
FOLLY BEACH CMAN 1000   77     200/ 14/ 18 1019.0R
CAPERS NEARSHORE 1008   81 76  210/ 16/ 21 1017.9R
FRIPP NEARSHORE  1008   77 77  200/ 14/ 16 1017.4R


STATION/POSITION TIME  TEMP    WIND        PRES    WAVE   SWELL
                       AIR SEA DIR/SP/G            HT/PER HT/PER/DIR
                 (UTC) (F)     (DEG/KT/KT) (MB)    (FT/S) (FT/S/D)
5E ST. MARYS GA  1030      79                N/A     3/ 4
FRYING PAN BUOY  1050   77 78  210/ 14/ 17 1018.8R   4/ 8   2/ 80/ 8
BUOY 41025       1050   73 78  130/  8/ 10 1019.1R   5/10   5/ 50/10
CAPE LOOKOUT NC  1000   72     200/  1/  2 1018.4R
BUOY 41002       0950   75 77  220/ 10/ 12 1019.7    3/ 8   3/ 50/ 8
BUOY 41010       1050   77 79  150/  6/  8 1019.4R   2/ 8   2/ 80/ 8
ST AUGUSTINE FL  1100   75 79  180/ 11/ 12 1019.1R


$$




USA.gov is the U.S. government's official web portal to all federal, state and local government web resources and services.